User: anonymous   Login
Location: Unspecified
(0.0000°N, 0.0000°E)
Time: 05:42:56
(UTC+00:00)
Language:

AGILE - Orbit

View from above orbital plane
View from above orbital plane
View from above satellite
View from above satellite

Ground track
Ground track

The orbit data is extracted from the following two-line orbital elements,

1 31135U 07013A   14326.24288700  .00010956  00000-0  42010-3 0   937
2 31135 002.4662 181.3063 0016182 226.7888 133.0813 15.21856764420095
Epoch (UTC): 22 November 2014 05:49:45
Eccentricity: 0.0016182
inclination: 2.4662°
perigee height: 489 km
apogee height: 511 km
right ascension of ascending node: 181.3063°
argument of perigee: 226.7888°
revolutions per day: 15.21856764
mean anomaly at epoch: 133.0813°
orbit number at epoch: 42009

The dashed part of the orbit path shows where the satellite is in the earth's shadow,  

DLR